Time,TemperatureF,DewpointF,PressureIn,WindDirection,WindDirectionDegrees,WindSpeedMPH,WindSpeedGustMPH,Humidity,HourlyPrecipIn,Conditions,Clouds,dailyrainin,SoftwareType,DateUTC
2013-06-12 00:05:00,69.3,64.3,29.80,NNE,22,0.0,0.0,84,0.00,,,0.00,Wunderground v.1.15,2013-06-12 05:05:00,
2013-06-12 00:10:00,69.2,64.5,29.80,NNE,22,0.0,0.0,85,0.00,,,0.00,Wunderground v.1.15,2013-06-12 05:10:00,
2013-06-12 00:15:00,69.1,64.4,29.80,NNE,22,0.0,0.0,85,0.00,,,0.00,Wunderground v.1.15,2013-06-12 05:15:00,
2013-06-12 00:20:00,69.0,64.3,29.80,NNE,22,0.0,0.0,85,0.00,,,0.00,Wunderground v.1.15,2013-06-12 05:20:00,
2013-06-12 00:25:00,68.9,63.9,29.80,NNE,22,0.0,0.0,84,0.00,,,0.00,Wunderground v.1.15,2013-06-12 05:25:00,
2013-06-12 00:30:00,68.7,64.0,29.80,NNE,22,0.0,1.0,85,0.00,,,0.00,Wunderground v.1.15,2013-06-12 05:30:00,
2013-06-12 00:35:00,68.6,64.2,29.80,NNE,22,0.0,1.0,86,0.00,,,0.00,Wunderground v.1.15,2013-06-12 05:35:00,
2013-06-12 00:40:00,68.6,64.2,29.81,NNE,22,0.0,0.0,86,0.00,,,0.00,Wunderground v.1.15,2013-06-12 05:40:00,
2013-06-12 00:45:00,68.5,64.5,29.81,NNE,22,0.0,0.0,87,0.00,,,0.00,Wunderground v.1.15,2013-06-12 05:45:00,
2013-06-12 00:50:00,68.5,64.5,29.82,NNE,22,0.0,0.0,87,0.00,,,0.00,Wunderground v.1.15,2013-06-12 05:50:00,
2013-06-12 00:55:00,68.5,64.5,29.82,NNE,22,0.0,0.0,87,0.00,,,0.00,Wunderground v.1.15,2013-06-12 05:55:00,
2013-06-12 01:00:00,68.6,64.2,29.82,NNE,22,0.0,0.0,86,0.00,,,0.00,Wunderground v.1.15,2013-06-12 06:00:00,
2013-06-12 01:05:00,68.5,64.1,29.81,NNE,22,0.0,0.0,86,0.00,,,0.00,Wunderground v.1.15,2013-06-12 06:05:00,
2013-06-12 01:10:00,68.5,64.1,29.81,NNE,22,0.0,0.0,86,0.00,,,0.00,Wunderground v.1.15,2013-06-12 06:10:00,
2013-06-12 01:15:00,68.5,64.1,29.82,NNE,22,0.0,0.0,86,0.00,,,0.00,Wunderground v.1.15,2013-06-12 06:15:00,
2013-06-12 01:20:00,68.4,64.0,29.82,NNE,22,0.0,0.0,86,0.00,,,0.00,Wunderground v.1.15,2013-06-12 06:20:00,
2013-06-12 01:25:00,68.3,63.9,29.82,NNE,22,0.0,0.0,86,0.00,,,0.00,Wunderground v.1.15,2013-06-12 06:25:00,
2013-06-12 01:30:00,68.3,63.9,29.82,NNE,22,0.0,0.0,86,0.00,,,0.00,Wunderground v.1.15,2013-06-12 06:30:00,
2013-06-12 01:35:00,68.3,63.9,29.81,NNE,22,0.0,0.0,86,0.00,,,0.00,Wunderground v.1.15,2013-06-12 06:35:00,
2013-06-12 01:40:00,68.3,63.6,29.81,NNE,22,0.0,0.0,85,0.00,,,0.00,Wunderground v.1.15,2013-06-12 06:40:00,
2013-06-12 01:45:00,68.3,63.6,29.82,NNE,22,0.0,0.0,85,0.00,,,0.00,Wunderground v.1.15,2013-06-12 06:45:00,
2013-06-12 01:50:00,68.4,63.7,29.82,NNE,22,0.0,0.0,85,0.00,,,0.00,Wunderground v.1.15,2013-06-12 06:50:00,
2013-06-12 01:55:00,68.4,64.0,29.82,NNE,22,0.0,0.0,86,0.00,,,0.00,Wunderground v.1.15,2013-06-12 06:55:00,
2013-06-12 02:00:00,68.4,64.0,29.82,NNE,22,0.0,0.0,86,0.00,,,0.00,Wunderground v.1.15,2013-06-12 07:00:00,
2013-06-12 02:05:00,68.4,64.4,29.83,NNE,22,0.0,0.0,87,0.00,,,0.00,Wunderground v.1.15,2013-06-12 07:05:00,
2013-06-12 02:10:00,68.4,64.0,29.82,NNE,22,0.0,0.0,86,0.00,,,0.00,Wunderground v.1.15,2013-06-12 07:10:00,
2013-06-12 02:15:00,68.4,64.4,29.83,NNE,22,0.0,0.0,87,0.00,,,0.00,Wunderground v.1.15,2013-06-12 07:15:00,
2013-06-12 02:20:00,68.4,64.4,29.82,NNE,22,0.0,0.0,87,0.00,,,0.00,Wunderground v.1.15,2013-06-12 07:20:00,
2013-06-12 02:25:00,68.4,64.0,29.82,NNE,22,0.0,0.0,86,0.00,,,0.00,Wunderground v.1.15,2013-06-12 07:25:00,
2013-06-12 02:30:00,68.5,64.1,29.82,NNE,22,0.0,0.0,86,0.00,,,0.00,Wunderground v.1.15,2013-06-12 07:30:00,
2013-06-12 02:35:00,68.4,64.0,29.82,NNE,22,0.0,0.0,86,0.00,,,0.00,Wunderground v.1.15,2013-06-12 07:35:00,
2013-06-12 02:40:00,68.4,64.0,29.82,NNE,22,0.0,0.0,86,0.00,,,0.00,Wunderground v.1.15,2013-06-12 07:40:00,
2013-06-12 02:45:00,68.4,64.0,29.82,NNE,22,0.0,1.0,86,0.00,,,0.00,Wunderground v.1.15,2013-06-12 07:45:00,
2013-06-12 02:50:00,68.3,63.9,29.81,NNE,22,0.0,0.0,86,0.00,,,0.00,Wunderground v.1.15,2013-06-12 07:50:00,
2013-06-12 02:55:00,68.3,63.9,29.80,NE,42,0.0,1.0,86,0.00,,,0.00,Wunderground v.1.15,2013-06-12 07:55:00,
2013-06-12 03:00:00,68.3,63.9,29.79,NE,47,0.0,1.0,86,0.00,,,0.00,Wunderground v.1.15,2013-06-12 08:00:00,
2013-06-12 03:05:00,68.5,64.1,29.79,East,80,1.0,2.0,86,0.00,,,0.00,Wunderground v.1.15,2013-06-12 08:05:00,
2013-06-12 03:10:00,68.8,64.1,29.78,ESE,105,1.0,2.0,85,0.00,,,0.00,Wunderground v.1.15,2013-06-12 08:10:00,
2013-06-12 03:15:00,69.0,64.3,29.76,East,94,1.0,2.0,85,0.00,,,0.00,Wunderground v.1.15,2013-06-12 08:15:00,
2013-06-12 03:20:00,69.1,64.4,29.76,East,84,2.0,2.0,85,0.00,,,0.00,Wunderground v.1.15,2013-06-12 08:20:00,
2013-06-12 03:25:00,69.3,64.3,29.76,East,84,2.0,2.0,84,0.00,,,0.00,Wunderground v.1.15,2013-06-12 08:25:00,
2013-06-12 03:30:00,69.3,64.3,29.78,NNE,24,2.0,2.0,84,0.00,,,0.00,Wunderground v.1.15,2013-06-12 08:30:00,
2013-06-12 03:35:00,69.3,64.3,29.78,NE,45,1.0,2.0,84,0.00,,,0.00,Wunderground v.1.15,2013-06-12 08:35:00,
2013-06-12 03:40:00,69.3,64.3,29.77,NNE,22,1.0,1.0,84,0.00,,,0.00,Wunderground v.1.15,2013-06-12 08:40:00,
2013-06-12 03:45:00,69.2,64.5,29.77,ENE,65,1.0,1.0,85,0.00,,,0.00,Wunderground v.1.15,2013-06-12 08:45:00,
2013-06-12 03:50:00,69.2,64.5,29.76,ESE,108,1.0,1.0,85,0.00,,,0.00,Wunderground v.1.15,2013-06-12 08:50:00,
2013-06-12 03:55:00,69.2,64.2,29.76,NE,47,2.0,2.0,84,0.00,,,0.00,Wunderground v.1.15,2013-06-12 08:55:00,
2013-06-12 04:00:00,69.3,64.3,29.76,SE,138,2.0,2.0,84,0.00,,,0.00,Wunderground v.1.15,2013-06-12 09:00:00,
2013-06-12 04:05:00,69.5,64.8,29.79,SE,138,1.0,2.0,85,0.00,,,0.00,Wunderground v.1.15,2013-06-12 09:05:00,
2013-06-12 04:10:00,69.5,64.5,29.79,NNE,21,1.0,1.0,84,0.00,,,0.00,Wunderground v.1.15,2013-06-12 09:10:00,
2013-06-12 04:15:00,69.5,64.8,29.79,North,11,1.0,4.0,85,0.00,,,0.00,Wunderground v.1.15,2013-06-12 09:15:00,
2013-06-12 04:20:00,69.5,64.8,29.78,NE,56,2.0,2.0,85,0.00,,,0.00,Wunderground v.1.15,2013-06-12 09:20:00,
2013-06-12 04:25:00,69.5,64.8,29.78,NNW,344,3.0,5.0,85,0.00,,,0.00,Wunderground v.1.15,2013-06-12 09:25:00,
2013-06-12 04:30:00,69.6,64.9,29.79,North,351,2.0,4.0,85,0.00,,,0.00,Wunderground v.1.15,2013-06-12 09:30:00,
2013-06-12 04:35:00,69.6,64.9,29.78,ENE,66,2.0,4.0,85,0.00,,,0.00,Wunderground v.1.15,2013-06-12 09:35:00,
2013-06-12 04:40:00,69.7,64.6,29.78,NNE,17,1.0,3.0,84,0.00,,,0.00,Wunderground v.1.15,2013-06-12 09:40:00,
2013-06-12 04:45:00,69.7,64.6,29.79,NNE,12,1.0,3.0,84,0.00,,,0.00,Wunderground v.1.15,2013-06-12 09:45:00,
2013-06-12 04:50:00,69.8,64.7,29.80,North,5,1.0,2.0,84,0.00,,,0.00,Wunderground v.1.15,2013-06-12 09:50:00,
2013-06-12 05:00:00,69.8,64.7,29.80,NNE,13,0.0,0.0,84,0.00,,,0.00,Wunderground v.1.15,2013-06-12 10:00:00,
2013-06-12 05:05:00,69.8,64.7,29.78,ENE,76,1.0,2.0,84,0.00,,,0.00,Wunderground v.1.15,2013-06-12 10:05:00,
2013-06-12 05:10:00,69.9,64.8,29.78,East,85,1.0,2.0,84,0.00,,,0.00,Wunderground v.1.15,2013-06-12 10:10:00,
2013-06-12 05:15:00,70.0,64.6,29.78,ESE,105,1.0,3.0,83,0.00,,,0.00,Wunderground v.1.15,2013-06-12 10:15:00,
2013-06-12 05:20:00,70.1,65.0,29.79,East,94,1.0,2.0,84,0.00,,,0.00,Wunderground v.1.15,2013-06-12 10:20:00,
2013-06-12 05:25:00,70.1,64.7,29.80,East,88,1.0,2.0,83,0.00,,,0.00,Wunderground v.1.15,2013-06-12 10:25:00,
2013-06-12 05:30:00,70.1,64.7,29.79,East,88,1.0,1.0,83,0.00,,,0.00,Wunderground v.1.15,2013-06-12 10:30:00,
2013-06-12 05:35:00,70.1,65.0,29.79,East,87,0.0,1.0,84,0.00,,,0.00,Wunderground v.1.15,2013-06-12 10:35:00,
2013-06-12 05:40:00,69.9,64.8,29.80,NE,49,1.0,1.0,84,0.00,,,0.00,Wunderground v.1.15,2013-06-12 10:40:00,
2013-06-12 05:45:00,69.9,64.8,29.79,East,86,1.0,2.0,84,0.00,,,0.00,Wunderground v.1.15,2013-06-12 10:45:00,
2013-06-12 05:50:00,69.8,64.7,29.81,NNE,20,1.0,1.0,84,0.00,,,0.00,Wunderground v.1.15,2013-06-12 10:50:00,
2013-06-12 05:55:00,69.9,64.8,29.82,NNE,21,1.0,2.0,84,0.00,,,0.00,Wunderground v.1.15,2013-06-12 10:55:00,
2013-06-12 06:05:00,70.2,65.1,29.82,North,351,2.0,2.0,84,0.00,,,0.00,Wunderground v.1.15,2013-06-12 11:05:00,
2013-06-12 06:10:00,70.3,65.2,29.83,NW,319,2.0,2.0,84,0.00,,,0.00,Wunderground v.1.15,2013-06-12 11:10:00,
2013-06-12 06:15:00,70.3,65.2,29.84,NW,319,1.0,2.0,84,0.00,,,0.00,Wunderground v.1.15,2013-06-12 11:15:00,
2013-06-12 06:20:00,70.3,65.2,29.83,NW,322,0.0,0.0,84,0.00,,,0.00,Wunderground v.1.15,2013-06-12 11:20:00,
2013-06-12 06:25:00,70.4,65.3,29.83,NW,323,0.0,0.0,84,0.00,,,0.00,Wunderground v.1.15,2013-06-12 11:25:00,
2013-06-12 06:30:00,70.5,65.8,29.84,NNW,334,1.0,1.0,85,0.00,,,0.00,Wunderground v.1.15,2013-06-12 11:30:00,
2013-06-12 06:35:00,70.6,65.5,29.84,NNW,334,0.0,1.0,84,0.00,,,0.00,Wunderground v.1.15,2013-06-12 11:35:00,
2013-06-12 06:40:00,70.6,65.9,29.85,NNW,334,0.0,1.0,85,0.00,,,0.00,Wunderground v.1.15,2013-06-12 11:40:00,
2013-06-12 06:45:00,70.6,66.2,29.86,NNW,342,0.0,1.0,86,0.00,,,0.00,Wunderground v.1.15,2013-06-12 11:45:00,
2013-06-12 06:50:00,70.7,66.0,29.86,NNW,342,0.0,0.0,85,0.00,,,0.00,Wunderground v.1.15,2013-06-12 11:50:00,
2013-06-12 06:55:00,70.7,65.6,29.86,North,5,0.0,1.0,84,0.00,,,0.00,Wunderground v.1.15,2013-06-12 11:55:00,
2013-06-12 07:00:00,70.8,66.1,29.87,North,5,0.0,0.0,85,0.00,,,0.00,Wunderground v.1.15,2013-06-12 12:00:00,
2013-06-12 07:05:00,70.9,66.2,29.87,North,5,0.0,0.0,85,0.00,,,0.00,Wunderground v.1.15,2013-06-12 12:05:00,
2013-06-12 07:15:00,71.2,66.1,29.86,North,5,0.0,0.0,84,0.00,,,0.00,Wunderground v.1.15,2013-06-12 12:15:00,
2013-06-12 07:20:00,71.3,66.2,29.86,North,5,0.0,0.0,84,0.00,,,0.00,Wunderground v.1.15,2013-06-12 12:20:00,
2013-06-12 07:25:00,71.4,66.0,29.86,North,5,0.0,0.0,83,0.00,,,0.00,Wunderground v.1.15,2013-06-12 12:25:00,
2013-06-12 07:30:00,71.5,66.1,29.85,North,5,0.0,0.0,83,0.00,,,0.00,Wunderground v.1.15,2013-06-12 12:30:00,
2013-06-12 07:35:00,71.7,66.3,29.85,North,5,0.0,1.0,83,0.00,,,0.00,Wunderground v.1.15,2013-06-12 12:35:00,
2013-06-12 07:40:00,71.8,66.4,29.84,East,90,1.0,2.0,83,0.00,,,0.00,Wunderground v.1.15,2013-06-12 12:40:00,
2013-06-12 07:45:00,71.9,66.1,29.83,East,99,1.0,2.0,82,0.00,,,0.00,Wunderground v.1.15,2013-06-12 12:45:00,
2013-06-12 07:50:00,72.1,66.6,29.84,East,94,2.0,2.0,83,0.00,,,0.00,Wunderground v.1.15,2013-06-12 12:50:00,
2013-06-12 07:55:00,72.2,66.7,29.82,ENE,78,2.0,2.0,83,0.00,,,0.00,Wunderground v.1.15,2013-06-12 12:55:00,
2013-06-12 08:00:00,72.3,66.5,29.83,ESE,114,2.0,2.0,82,0.00,,,0.00,Wunderground v.1.15,2013-06-12 13:00:00,
2013-06-12 08:05:00,72.4,66.6,29.83,SE,144,1.0,2.0,82,0.00,,,0.00,Wunderground v.1.15,2013-06-12 13:05:00,
2013-06-12 08:10:00,72.4,66.2,29.83,SE,144,1.0,1.0,81,0.00,,,0.00,Wunderground v.1.15,2013-06-12 13:10:00,
2013-06-12 08:15:00,72.6,66.1,29.82,East,87,1.0,5.0,80,0.00,,,0.00,Wunderground v.1.15,2013-06-12 13:15:00,
2013-06-12 08:20:00,72.7,66.2,29.80,East,87,2.0,2.0,80,0.00,,,0.00,Wunderground v.1.15,2013-06-12 13:20:00,
2013-06-12 08:25:00,72.7,66.2,29.80,ESE,109,3.0,3.0,80,0.00,,,0.00,Wunderground v.1.15,2013-06-12 13:25:00,
2013-06-12 08:30:00,72.7,66.2,29.79,SE,136,2.0,2.0,80,0.00,,,0.00,Wunderground v.1.15,2013-06-12 13:30:00,
2013-06-12 08:35:00,72.8,66.3,29.81,SE,138,1.0,2.0,80,0.00,,,0.00,Wunderground v.1.15,2013-06-12 13:35:00,
2013-06-12 08:40:00,72.9,66.7,29.82,SE,126,1.0,1.0,81,0.00,,,0.00,Wunderground v.1.15,2013-06-12 13:40:00,
2013-06-12 08:45:00,73.0,67.2,29.82,South,178,1.0,1.0,82,0.00,,,0.00,Wunderground v.1.15,2013-06-12 13:45:00,
2013-06-12 08:55:00,73.3,67.1,29.83,SSW,206,1.0,1.0,81,0.00,,,0.00,Wunderground v.1.15,2013-06-12 13:55:00,
2013-06-12 09:00:00,73.4,66.9,29.82,South,188,1.0,2.0,80,0.00,,,0.00,Wunderground v.1.15,2013-06-12 14:00:00,
2013-06-12 09:05:00,73.6,67.0,29.81,SSE,163,1.0,2.0,80,0.00,,,0.00,Wunderground v.1.15,2013-06-12 14:05:00,
2013-06-12 09:10:00,73.8,66.9,29.79,SE,146,2.0,2.0,79,0.00,,,0.00,Wunderground v.1.15,2013-06-12 14:10:00,
2013-06-12 09:15:00,73.9,67.0,29.79,SSE,150,2.0,2.0,79,0.00,,,0.00,Wunderground v.1.15,2013-06-12 14:15:00,
2013-06-12 09:20:00,73.8,67.2,29.80,SSE,164,2.0,3.0,80,0.00,,,0.00,Wunderground v.1.15,2013-06-12 14:20:00,
2013-06-12 09:25:00,73.8,66.9,29.80,South,183,2.0,3.0,79,0.00,,,0.00,Wunderground v.1.15,2013-06-12 14:25:00,
2013-06-12 09:30:00,73.9,67.3,29.79,South,172,1.0,1.0,80,0.00,,,0.00,Wunderground v.1.15,2013-06-12 14:30:00,
2013-06-12 09:35:00,74.1,67.5,29.78,South,186,1.0,3.0,80,0.00,,,0.00,Wunderground v.1.15,2013-06-12 14:35:00,
2013-06-12 09:40:00,74.2,67.3,29.78,South,178,2.0,2.0,79,0.00,,,0.00,Wunderground v.1.15,2013-06-12 14:40:00,
2013-06-12 09:45:00,74.3,67.0,29.76,SE,144,2.0,2.0,78,0.00,,,0.00,Wunderground v.1.15,2013-06-12 14:45:00,
2013-06-12 09:50:00,74.3,67.0,29.70,SE,126,3.0,7.0,78,0.00,,,0.00,Wunderground v.1.15,2013-06-12 14:50:00,
2013-06-12 09:55:00,74.2,67.3,29.69,SE,130,4.0,7.0,79,0.00,,,0.00,Wunderground v.1.15,2013-06-12 14:55:00,
2013-06-12 10:00:00,74.3,67.0,29.67,SE,130,5.0,8.0,78,0.00,,,0.00,Wunderground v.1.15,2013-06-12 15:00:00,
2013-06-12 10:10:00,74.6,66.9,29.67,ENE,74,4.0,5.0,77,0.00,,,0.00,Wunderground v.1.15,2013-06-12 15:10:00,
2013-06-12 10:15:00,74.9,66.8,29.65,East,83,5.0,16.0,76,0.00,,,0.00,Wunderground v.1.15,2013-06-12 15:15:00,
2013-06-12 10:20:00,75.2,67.1,29.67,SW,226,5.0,5.0,76,0.00,,,0.00,Wunderground v.1.15,2013-06-12 15:20:00,
2013-06-12 10:25:00,75.5,67.0,29.67,South,189,4.0,8.0,75,0.00,,,0.00,Wunderground v.1.15,2013-06-12 15:25:00,
2013-06-12 10:30:00,75.8,66.9,29.67,ESE,114,4.0,4.0,74,0.00,,,0.00,Wunderground v.1.15,2013-06-12 15:30:00,
2013-06-12 10:35:00,76.2,66.9,29.68,SSW,194,3.0,4.0,73,0.00,,,0.00,Wunderground v.1.15,2013-06-12 15:35:00,
2013-06-12 10:40:00,76.9,66.4,29.67,SW,232,3.0,3.0,70,0.00,,,0.00,Wunderground v.1.15,2013-06-12 15:40:00,
2013-06-12 10:45:00,77.6,66.6,29.67,South,174,4.0,4.0,69,0.00,,,0.00,Wunderground v.1.15,2013-06-12 15:45:00,
2013-06-12 10:50:00,78.2,66.8,29.67,SE,142,4.0,4.0,68,0.00,,,0.00,Wunderground v.1.15,2013-06-12 15:50:00,
2013-06-12 10:55:00,78.9,67.4,29.66,SSE,161,4.0,4.0,68,0.00,,,0.00,Wunderground v.1.15,2013-06-12 15:55:00,
2013-06-12 11:00:00,79.9,67.5,29.66,South,170,4.0,6.0,66,0.00,,,0.00,Wunderground v.1.15,2013-06-12 16:00:00,
2013-06-12 11:05:00,80.6,67.3,29.65,SE,128,4.0,6.0,64,0.00,,,0.00,Wunderground v.1.15,2013-06-12 16:05:00,
2013-06-12 11:10:00,80.8,67.0,29.66,South,169,5.0,5.0,63,0.00,,,0.00,Wunderground v.1.15,2013-06-12 16:10:00,
2013-06-12 11:15:00,80.8,66.6,29.65,SSE,166,5.0,5.0,62,0.00,,,0.00,Wunderground v.1.15,2013-06-12 16:15:00,
2013-06-12 11:20:00,80.9,67.6,29.65,South,178,4.0,4.0,64,0.00,,,0.00,Wunderground v.1.15,2013-06-12 16:20:00,
2013-06-12 11:25:00,81.4,67.6,29.66,East,86,4.0,4.0,63,0.00,,,0.00,Wunderground v.1.15,2013-06-12 16:25:00,
2013-06-12 11:30:00,82.2,67.9,29.67,South,174,4.0,4.0,62,0.00,,,0.00,Wunderground v.1.15,2013-06-12 16:30:00,
2013-06-12 11:35:00,82.9,68.5,29.68,SW,230,5.0,5.0,62,0.00,,,0.00,Wunderground v.1.15,2013-06-12 16:35:00,
2013-06-12 11:40:00,83.1,66.8,29.68,South,177,5.0,5.0,58,0.00,,,0.00,Wunderground v.1.15,2013-06-12 16:40:00,
2013-06-12 11:45:00,83.0,68.2,29.68,South,184,4.0,5.0,61,0.00,,,0.00,Wunderground v.1.15,2013-06-12 16:45:00,
2013-06-12 11:50:00,82.7,66.9,29.68,SW,215,4.0,4.0,59,0.00,,,0.00,Wunderground v.1.15,2013-06-12 16:50:00,
2013-06-12 11:55:00,82.3,67.5,29.68,NE,55,5.0,5.0,61,0.00,,,0.00,Wunderground v.1.15,2013-06-12 16:55:00,
2013-06-12 12:00:00,82.4,67.6,29.68,ESE,107,4.0,4.0,61,0.00,,,0.00,Wunderground v.1.15,2013-06-12 17:00:00,
2013-06-12 12:05:00,82.9,68.5,29.68,SW,222,2.0,4.0,62,0.00,,,0.00,Wunderground v.1.15,2013-06-12 17:05:00,
2013-06-12 12:10:00,83.3,69.8,29.69,ESE,106,3.0,3.0,64,0.00,,,0.00,Wunderground v.1.15,2013-06-12 17:10:00,
2013-06-12 12:15:00,83.6,68.7,29.70,South,174,4.0,4.0,61,0.00,,,0.00,Wunderground v.1.15,2013-06-12 17:15:00,
2013-06-12 12:20:00,83.8,70.3,29.71,WSW,254,4.0,4.0,64,0.00,,,0.00,Wunderground v.1.15,2013-06-12 17:20:00,
2013-06-12 12:25:00,84.2,70.7,29.72,SSW,195,4.0,4.0,64,0.00,,,0.00,Wunderground v.1.15,2013-06-12 17:25:00,
2013-06-12 12:30:00,84.5,70.0,29.73,SSE,154,3.0,3.0,62,0.00,,,0.00,Wunderground v.1.15,2013-06-12 17:30:00,
2013-06-12 12:40:00,84.3,71.2,29.74,SW,219,4.0,5.0,65,0.00,,,0.00,Wunderground v.1.15,2013-06-12 17:40:00,
2013-06-12 12:45:00,83.7,69.8,29.74,WSW,238,4.0,5.0,63,0.00,,,0.00,Wunderground v.1.15,2013-06-12 17:45:00,
2013-06-12 12:50:00,83.3,70.3,29.74,WSW,248,4.0,4.0,65,0.00,,,0.00,Wunderground v.1.15,2013-06-12 17:50:00,
2013-06-12 12:55:00,83.5,71.8,29.74,SSW,198,3.0,4.0,68,0.00,,,0.00,Wunderground v.1.15,2013-06-12 17:55:00,
2013-06-12 13:00:00,83.9,71.8,29.74,WSW,253,3.0,3.0,67,0.00,,,0.00,Wunderground v.1.15,2013-06-12 18:00:00,
2013-06-12 13:10:00,84.2,71.2,29.73,SSW,205,4.0,4.0,65,0.00,,,0.00,Wunderground v.1.15,2013-06-12 18:10:00,
2013-06-12 13:15:00,84.3,71.7,29.73,WNW,287,3.0,4.0,66,0.00,,,0.00,Wunderground v.1.15,2013-06-12 18:15:00,
2013-06-12 13:20:00,84.6,71.1,29.73,WSW,246,2.0,2.0,64,0.00,,,0.00,Wunderground v.1.15,2013-06-12 18:20:00,
2013-06-12 13:25:00,85.2,72.6,29.72,NW,315,1.0,2.0,66,0.00,,,0.00,Wunderground v.1.15,2013-06-12 18:25:00,
2013-06-12 13:30:00,85.5,71.5,29.72,WNW,288,1.0,2.0,63,0.00,,,0.00,Wunderground v.1.15,2013-06-12 18:30:00,
2013-06-12 13:35:00,85.9,72.8,29.72,North,351,1.0,3.0,65,0.00,,,0.00,Wunderground v.1.15,2013-06-12 18:35:00,
2013-06-12 13:40:00,86.2,73.0,29.72,NW,325,2.0,2.0,65,0.00,,,0.00,Wunderground v.1.15,2013-06-12 18:40:00,
2013-06-12 13:45:00,86.3,72.2,29.72,SW,229,2.0,3.0,63,0.00,,,0.00,Wunderground v.1.15,2013-06-12 18:45:00,
2013-06-12 13:50:00,86.5,72.9,29.71,South,187,2.0,3.0,64,0.00,,,0.00,Wunderground v.1.15,2013-06-12 18:50:00,
2013-06-12 13:55:00,86.6,72.0,29.71,SSW,194,3.0,3.0,62,0.00,,,0.00,Wunderground v.1.15,2013-06-12 18:55:00,
2013-06-12 14:00:00,86.6,71.5,29.71,South,179,3.0,3.0,61,0.00,,,0.00,Wunderground v.1.15,2013-06-12 19:00:00,
2013-06-12 14:05:00,86.6,72.0,29.71,NW,317,2.0,3.0,62,0.00,,,0.00,Wunderground v.1.15,2013-06-12 19:05:00,
2013-06-12 14:10:00,86.7,73.1,29.70,West,267,2.0,2.0,64,0.00,,,0.00,Wunderground v.1.15,2013-06-12 19:10:00,
2013-06-12 14:20:00,87.0,71.9,29.70,ENE,57,2.0,2.0,61,0.00,,,0.00,Wunderground v.1.15,2013-06-12 19:20:00,
2013-06-12 14:25:00,87.1,72.0,29.69,SE,146,2.0,2.0,61,0.00,,,0.00,Wunderground v.1.15,2013-06-12 19:25:00,
2013-06-12 14:30:00,86.7,72.1,29.69,SE,140,1.0,1.0,62,0.00,,,0.00,Wunderground v.1.15,2013-06-12 19:30:00,
2013-06-12 14:35:00,86.8,73.2,29.69,ENE,69,1.0,4.0,64,0.00,,,0.00,Wunderground v.1.15,2013-06-12 19:35:00,
2013-06-12 14:40:00,87.0,71.9,29.69,ENE,64,2.0,2.0,61,0.00,,,0.00,Wunderground v.1.15,2013-06-12 19:40:00,
2013-06-12 14:45:00,87.1,71.5,29.68,East,96,2.0,2.0,60,0.00,,,0.00,Wunderground v.1.15,2013-06-12 19:45:00,
2013-06-12 14:50:00,87.1,72.0,29.68,East,97,1.0,1.0,61,0.00,,,0.00,Wunderground v.1.15,2013-06-12 19:50:00,
2013-06-12 14:55:00,87.2,72.1,29.68,ENE,70,1.0,1.0,61,0.00,,,0.00,Wunderground v.1.15,2013-06-12 19:55:00,
2013-06-12 15:00:00,87.5,72.9,29.67,NE,49,1.0,2.0,62,0.00,,,0.00,Wunderground v.1.15,2013-06-12 20:00:00,
2013-06-12 15:05:00,87.6,72.0,29.68,East,86,2.0,5.0,60,0.00,,,0.00,Wunderground v.1.15,2013-06-12 20:05:00,
2013-06-12 15:10:00,87.6,72.0,29.68,East,88,2.0,2.0,60,0.00,,,0.00,Wunderground v.1.15,2013-06-12 20:10:00,
2013-06-12 15:15:00,87.5,72.4,29.68,NNE,21,2.0,2.0,61,0.00,,,0.00,Wunderground v.1.15,2013-06-12 20:15:00,
2013-06-12 15:20:00,87.4,72.3,29.68,East,80,2.0,3.0,61,0.00,,,0.00,Wunderground v.1.15,2013-06-12 20:20:00,
2013-06-12 15:25:00,87.2,72.1,29.67,East,85,2.0,3.0,61,0.00,,,0.00,Wunderground v.1.15,2013-06-12 20:25:00,
2013-06-12 15:30:00,87.2,72.6,29.67,East,91,1.0,3.0,62,0.00,,,0.00,Wunderground v.1.15,2013-06-12 20:30:00,
2013-06-12 15:35:00,87.5,72.4,29.65,East,79,1.0,3.0,61,0.00,,,0.00,Wunderground v.1.15,2013-06-12 20:35:00,
2013-06-12 15:40:00,87.5,72.4,29.65,East,81,2.0,3.0,61,0.00,,,0.00,Wunderground v.1.15,2013-06-12 20:40:00,
2013-06-12 15:45:00,87.2,72.6,29.65,ESE,106,2.0,3.0,62,0.00,,,0.00,Wunderground v.1.15,2013-06-12 20:45:00,
2013-06-12 15:50:00,86.4,71.8,29.64,ESE,108,3.0,3.0,62,0.00,,,0.00,Wunderground v.1.15,2013-06-12 20:50:00,
2013-06-12 15:55:00,85.6,71.6,29.64,NE,46,4.0,4.0,63,0.00,,,0.00,Wunderground v.1.15,2013-06-12 20:55:00,
2013-06-12 16:00:00,84.8,70.8,29.64,ENE,77,3.0,3.0,63,0.00,,,0.00,Wunderground v.1.15,2013-06-12 21:00:00,
2013-06-12 16:05:00,84.1,70.6,29.62,NNE,29,4.0,4.0,64,0.00,,,0.00,Wunderground v.1.15,2013-06-12 21:05:00,
2013-06-12 16:10:00,83.4,70.4,29.61,North,9,4.0,4.0,65,0.00,,,0.00,Wunderground v.1.15,2013-06-12 21:10:00,
2013-06-12 16:15:00,82.8,69.8,29.63,ENE,66,4.0,5.0,65,0.00,,,0.00,Wunderground v.1.15,2013-06-12 21:15:00,
2013-06-12 16:20:00,82.1,69.6,29.61,NE,46,4.0,4.0,66,0.00,,,0.00,Wunderground v.1.15,2013-06-12 21:20:00,
2013-06-12 16:25:00,81.6,70.0,29.61,East,95,4.0,5.0,68,0.00,,,0.00,Wunderground v.1.15,2013-06-12 21:25:00,
2013-06-12 16:30:00,80.9,70.6,29.63,East,86,4.0,4.0,71,0.00,,,0.01,Wunderground v.1.15,2013-06-12 21:30:00,
2013-06-12 16:35:00,80.0,71.0,29.61,East,81,3.0,4.0,74,0.90,,,0.04,Wunderground v.1.15,2013-06-12 21:35:00,
2013-06-12 16:40:00,78.1,70.3,29.63,ESE,103,3.0,5.0,77,2.01,,,0.14,Wunderground v.1.15,2013-06-12 21:40:00,
2013-06-12 16:45:00,76.1,69.8,29.63,East,81,4.0,5.0,81,0.65,,,0.22,Wunderground v.1.15,2013-06-12 21:45:00,
2013-06-12 16:50:00,74.8,69.6,29.63,East,82,4.0,4.0,84,0.24,,,0.24,Wunderground v.1.15,2013-06-12 21:50:00,
2013-06-12 16:55:00,73.9,69.8,29.63,East,95,2.0,4.0,87,0.09,,,0.25,Wunderground v.1.15,2013-06-12 21:55:00,
2013-06-12 17:00:00,73.3,69.5,29.62,East,82,2.0,2.0,88,0.09,,,0.25,Wunderground v.1.15,2013-06-12 22:00:00,
2013-06-12 17:05:00,73.1,70.0,29.60,NE,47,3.0,4.0,90,0.06,,,0.25,Wunderground v.1.15,2013-06-12 22:05:00,
2013-06-12 17:10:00,73.0,70.2,29.59,ENE,61,4.0,5.0,91,0.04,,,0.25,Wunderground v.1.15,2013-06-12 22:10:00,
2013-06-12 17:15:00,73.0,69.9,29.62,East,85,3.0,5.0,90,0.00,,,0.25,Wunderground v.1.15,2013-06-12 22:15:00,
2013-06-12 17:20:00,72.9,69.8,29.61,ENE,74,3.0,3.0,90,0.00,,,0.25,Wunderground v.1.15,2013-06-12 22:20:00,
2013-06-12 17:25:00,72.8,70.0,29.61,SE,124,4.0,4.0,91,0.00,,,0.25,Wunderground v.1.15,2013-06-12 22:25:00,
2013-06-12 17:30:00,72.7,69.9,29.60,East,81,3.0,3.0,91,0.00,,,0.25,Wunderground v.1.15,2013-06-12 22:30:00,
2013-06-12 17:35:00,72.6,69.8,29.59,ENE,65,2.0,4.0,91,0.00,,,0.25,Wunderground v.1.15,2013-06-12 22:35:00,
2013-06-12 17:40:00,72.5,69.7,29.59,East,92,3.0,5.0,91,0.00,,,0.25,Wunderground v.1.15,2013-06-12 22:40:00,
2013-06-12 17:45:00,72.4,69.3,29.58,SE,135,3.0,5.0,90,0.00,,,0.25,Wunderground v.1.15,2013-06-12 22:45:00,
2013-06-12 17:50:00,72.2,69.4,29.59,ESE,104,3.0,4.0,91,0.00,,,0.25,Wunderground v.1.15,2013-06-12 22:50:00,
2013-06-12 17:55:00,72.1,69.3,29.57,East,94,4.0,7.0,91,0.00,,,0.25,Wunderground v.1.15,2013-06-12 22:55:00,
2013-06-12 18:00:00,72.0,68.9,29.57,East,99,5.0,5.0,90,0.00,,,0.25,Wunderground v.1.15,2013-06-12 23:00:00,
2013-06-12 18:05:00,71.9,68.8,29.56,East,89,4.0,9.0,90,0.00,,,0.25,Wunderground v.1.15,2013-06-12 23:05:00,
2013-06-12 18:10:00,71.7,68.6,29.55,East,91,5.0,5.0,90,0.00,,,0.25,Wunderground v.1.15,2013-06-12 23:10:00,
2013-06-12 18:15:00,71.6,68.8,29.57,NNE,19,5.0,5.0,91,0.00,,,0.26,Wunderground v.1.15,2013-06-12 23:15:00,
2013-06-12 18:20:00,71.5,68.7,29.55,NE,42,3.0,4.0,91,0.00,,,0.26,Wunderground v.1.15,2013-06-12 23:20:00,
2013-06-12 18:25:00,71.3,68.9,29.57,NE,51,2.0,5.0,92,0.00,,,0.26,Wunderground v.1.15,2013-06-12 23:25:00,
2013-06-12 18:30:00,71.1,68.7,29.56,NE,54,3.0,7.0,92,0.00,,,0.26,Wunderground v.1.15,2013-06-12 23:30:00,
2013-06-12 18:35:00,70.8,68.0,29.54,ENE,74,4.0,7.0,91,0.04,,,0.27,Wunderground v.1.15,2013-06-12 23:35:00,
2013-06-12 18:40:00,70.4,68.0,29.53,East,92,5.0,5.0,92,0.19,,,0.29,Wunderground v.1.15,2013-06-12 23:40:00,